Location: ???? ??
(36.0534°N, 43.5630°E)
Time: 22:05:00
(UTC+00:00)

Cosmos 2084 Rocket - Pass Details

Date: 18 September 2019
Orbit: 571 x 610 km, 62.8° (Epoch: 14 October)

Event Time Altitude Azimuth Distance (km) Brightness Sun altitude
Rises 17:13:48 0° 218° (SW) 2,844 7.1 -25.3°
Reaches altitude 10° 17:16:04 10° 221° (SW) 1,948 6.3 -25.7°
Enters shadow 17:20:02 61° 269° (W) 690 3.9 -26.5°
